CW9861 Weather Reports


time (UTC)temp
C
wind
direction
speed
KPH
gust
KPH
rain 1hr
cm
rain 24hr
cm
rain mn
cm
humidity
%
barometer
mb
20260504050457 10 162 4.8 12.9 0.00 0.00 0.00 77 1003.7
20260504045959 10 242 6.4 14.5 0.00 0.00 0.00 77 1003.8
20260504045458 10 210 6.4 16.1 0.00 0.00 0.00 77 1003.9
20260504044958 10 223 4.8 14.5 0.00 0.00 0.00 77 1003.9
20260504044458 10 226 6.4 14.5 0.00 0.00 0.00 77 1004.0
20260504043958 10 165 4.8 14.5 0.00 0.00 0.00 76 1004.0
20260504043459 10 180 3.2 16.1 0.00 0.00 0.00 76 1004.0
20260504042958 10 180 6.4 16.1 0.00 0.00 0.00 76 1004.1
20260504042458 10 266 6.4 14.5 0.00 0.00 0.00 76 1004.1
20260504041958 10 238 6.4 14.5 0.00 0.00 0.00 76 1004.2
20260504041458 10 180 4.8 14.5 0.00 0.00 0.00 76 1004.2
20260504041000 10 220 6.4 20.9 0.00 0.00 0.00 76 1004.2
20260504040458 10 271 9.7 20.9 0.00 0.00 0.00 76 1004.2
20260504035959 10 218 3.2 16.1 0.00 0.00 0.00 75 1004.2
20260504035458 10 180 4.8 20.9 0.00 0.00 0.00 75 1004.3
20260504034959 10 186 8.0 20.9 0.00 0.00 0.00 75 1004.3
20260504034458 10 266 9.7 16.1 0.00 0.00 0.00 75 1004.4
20260504033958 10 166 6.4 16.1 0.00 0.00 0.00 74 1004.6
20260504033458 10 217 8.0 16.1 0.00 0.00 0.00 74 1004.7
20260504015000 11 176 1.6 12.9 0.00 0.00 0.00 68 1004.9
20260504014459 11 234 3.2 9.7 0.00 0.00 0.00 68 1005.0
20260504013959 11 225 1.6 11.3 0.00 0.00 0.00 67 1004.9
20260504013459 11 210 1.6 16.1 0.00 0.00 0.00 67 1004.9
20260504013000 11 214 6.4 16.1 0.00 0.00 0.00 67 1005.0
20260504012459 11 226 4.8 12.9 0.00 0.00 0.00 67 1004.9
20260504011959 11 228 4.8 12.9 0.00 0.00 0.00 67 1004.9
20260504011459 12 183 4.8 11.3 0.00 0.00 0.00 66 1004.9
20260504010959 12 188 1.6 17.7 0.00 0.00 0.00 66 1005.0
20260504010459 12 239 6.4 16.1 0.00 0.00 0.00 66 1005.0
20260504005959 12 157 3.2 16.1 0.00 0.00 0.00 66 1004.9
20260504005458 12 188 6.4 17.7 0.00 0.00 0.00 66 1004.9
20260504004958 12 217 8.0 17.7 0.00 0.00 0.00 66 1004.9
20260504004458 12 230 3.2 17.7 0.00 0.00 0.00 65 1005.1
20260504003958 12 228 6.4 17.7 0.00 0.00 0.00 65 1005.1
20260504003458 12 228 4.8 9.7 0.00 0.00 0.00 65 1005.1
20260504002958 12 190 3.2 12.9 0.00 0.00 0.00 64 1005.0
20260504002458 12 168 4.8 12.9 0.00 0.00 0.00 64 1005.1
20260504001958 12 240 4.8 16.1 0.00 0.00 0.00 63 1005.1
20260504001459 12 252 6.4 22.5 0.00 0.00 0.00 63 1005.1
20260504000958 12 198 12.9 22.5 0.00 0.00 0.00 63 1005.2
20260504000459 12 236 3.2 25.7 0.00 0.00 0.00 63 1005.2
20260503235959 12 249 12.9 25.7 0.00 0.00 0.00 62 1005.3
20260503235458 12 221 9.7 17.7 0.00 0.00 0.00 63 1005.4
20260503234958 12 217 4.8 17.7 0.00 0.00 0.00 63 1005.5
20260503234458 12 188 6.4 17.7 0.00 0.00 0.00 63 1005.4
20260503233958 12 210 4.8 16.1 0.00 0.00 0.00 63 1005.5
20260503233458 12 211 1.6 22.5 0.00 0.00 0.00 62 1005.4
20260503232958 12 201 11.3 22.5 0.00 0.00 0.00 62 1005.6
20260503232458 13 196 6.4 14.5 0.00 0.00 0.00 61 1005.6
20260503231958 13 184 4.8 17.7 0.00 0.00 0.00 62 1005.6
20260503213501 12 303 9.7 22.5 0.00 0.00 0.00 66 1006.9
20260503212959 12 235 8.0 16.1 0.00 0.00 0.00 67 1007.0
20260503212501 12 220 8.0 16.1 0.00 0.00 0.00 67 1007.0
20260503211959 12 236 4.8 22.5 0.00 0.00 0.00 69 1007.0
20260503211459 12 211 6.4 24.1 0.00 0.00 0.00 68 1007.1
20260503210959 12 266 8.0 24.1 0.00 0.00 0.00 69 1007.1
20260503210500 12 210 12.9 22.5 0.00 0.00 0.00 68 1007.2
20260503210000 12 211 8.0 25.7 0.00 0.00 0.00 68 1007.3
20260503205458 11 233 12.9 27.4 0.00 0.00 0.00 69 1007.3
20260503204959 11 194 11.3 27.4 0.00 0.00 0.00 70 1007.4
20260503204458 11 224 11.3 24.1 0.00 0.00 0.00 71 1007.5
20260503203959 11 153 11.3 24.1 0.00 0.00 0.00 70 1007.7
20260503203459 11 235 11.3 29.0 0.00 0.00 0.00 69 1007.7
20260503202959 11 234 16.1 29.0 0.00 0.00 0.00 68 1007.8
20260503202459 11 286 14.5 29.0 0.00 0.00 0.00 67 1007.7
20260503201958 12 251 12.9 37.0 0.00 0.00 0.00 65 1007.9
20260503201458 12 219 12.9 27.4 0.00 0.00 0.00 64 1007.9
20260503200958 12 247 11.3 27.4 0.00 0.00 0.00 63 1007.9
20260503200458 12 224 14.5 27.4 0.00 0.00 0.00 62 1007.9
20260503200001 12 228 14.5 27.4 0.00 0.00 0.00 61 1008.1
20260503195459 12 266 9.7 32.2 0.00 0.00 0.00 60 1008.3
20260503195000 13 242 16.1 32.2 0.00 0.00 0.00 59 1008.1
20260503194459 13 298 14.5 27.4 0.00 0.00 0.00 59 1007.8
20260503194000 13 285 12.9 56.3 0.00 0.00 0.00 57 1007.9
20260503193459 14 247 14.5 56.3 0.00 0.00 0.00 55 1007.9
20260503192959 15 197 9.7 29.0 0.00 0.00 0.00 56 1007.8
20260503192459 15 213 11.3 27.4 0.00 0.00 0.00 55 1007.7
20260503191959 15 271 14.5 29.0 0.00 0.00 0.00 54 1007.7
20260503191459 16 255 8.0 29.0 0.00 0.00 0.00 55 1007.9
20260503190958 15 290 9.7 27.4 0.00 0.00 0.00 53 1007.9
20260503190459 16 211 11.3 32.2 0.00 0.00 0.00 52 1008.0
20260503185959 16 266 11.3 38.6 0.00 0.00 0.00 55 1008.1
20260503174957 16 210 16.1 37.0 0.00 0.00 0.00 49 1008.9
20260503174458 16 238 14.5 37.0 0.00 0.00 0.00 51 1008.9
20260503173958 16 220 14.5 33.8 0.00 0.00 0.00 50 1008.9
20260503173459 16 217 16.1 30.6 0.00 0.00 0.00 50 1009.0
20260503172958 16 266 8.0 25.7 0.00 0.00 0.00 53 1009.0
20260503172458 16 341 11.3 25.7 0.00 0.00 0.00 52 1009.1
20260503171958 16 231 8.0 20.9 0.00 0.00 0.00 53 1009.2
20260503130959 11 249 9.7 19.3 0.00 0.00 0.00 60 1010.5
20260503130458 10 286 8.0 17.7 0.00 0.00 0.00 61 1010.6
20260503110458 3 229 1.6 4.8 0.00 0.00 0.00 74 1010.7
20260503090458 3 199 0.0 4.8 0.00 0.00 0.00 67 1011.2
20260503081459 3 325 1.6 4.8 0.00 0.00 0.00 63 1011.6
20260503080959 3 210 0.0 3.2 0.00 0.00 0.00 62 1011.4
20260503080459 3 276 0.0 6.4 0.00 0.00 0.00 62 1011.5
20260503072458 4 238 6.4 14.5 0.00 0.00 0.00 60 1011.6
20260503071959 4 232 1.6 14.5 0.00 0.00 0.00 60 1011.6
20260503071458 4 271 4.8 12.9 0.00 0.00 0.00 60 1011.7
20260503070959 4 281 1.6 11.3 0.00 0.00 0.00 59 1011.8
20260503070458 4 5 4.8 11.3 0.00 0.00 0.00 59 1011.9
20260503054959 2 205 3.2 11.3 0.00 0.00 0.00 63 1012.9
20260503054459 2 266 1.6 6.4 0.00 0.00 0.00 64 1013.0
20260503053959 2 232 1.6 6.4 0.00 0.00 0.00 64 1013.0
20260503053458 2 216 1.6 4.8 0.00 0.00 0.00 65 1013.0